Weather reports worldwide

Advertisment
Newton Rigg, United Kingdom (99152): temperature & dewpoint: 23.09.2020 03:00:00 - 29.09.2020 03:00:00 (BST)Newton Rigg, United Kingdom (99152): temperature -20cm & temperature -100cm: 23.09.2020 03:00:00 - 29.09.2020 03:00:00 (BST)Newton Rigg, United Kingdom (99152): precipitation: 23.09.2020 03:00:00 - 29.09.2020 03:00:00 (BST)
Date & Time tt [°C] td [°C] tt -20cm [°C] tt -100cm [°C] rr [mm]
29.09.2020 03:00:00 - - - - -
29.09.2020 02:00:00 4,8 4,2 - - 0,0
29.09.2020 01:00:00 5,7 5,0 - - 0,0
29.09.2020 00:00:00 8,0 7,4 - - 0,0
28.09.2020 23:00:00 8,8 8,2 - - 0,0
28.09.2020 22:00:00 9,2 8,2 - - 0,0
28.09.2020 21:00:00 11,0 9,9 - - 0,0
28.09.2020 20:00:00 11,7 10,6 - - 0,0
28.09.2020 19:00:00 12,4 11,2 - - 0,4
28.09.2020 18:00:00 13,4 12,0 - - 0,0
28.09.2020 17:00:00 13,8 11,7 - - 0,0
28.09.2020 16:00:00 13,7 11,0 - - 0,0
28.09.2020 15:00:00 14,9 11,7 - - 0,0
28.09.2020 14:00:00 13,2 10,1 - - 0,0
28.09.2020 13:00:00 11,5 9,2 - - 0,0
28.09.2020 12:00:00 9,5 8,0 - - 0,0
28.09.2020 11:00:00 7,8 6,8 - - 0,0
28.09.2020 10:00:00 6,5 6,3 10,7 12,0 0,0
28.09.2020 09:00:00 4,3 4,2 - - 0,0
28.09.2020 08:00:00 3,1 3,0 - - 0,0
28.09.2020 07:00:00 2,5 2,4 - - 0,0
28.09.2020 06:00:00 2,7 2,5 - - 0,0
28.09.2020 05:00:00 1,7 1,6 - - 0,0
28.09.2020 04:00:00 0,6 0,4 - - 0,0
28.09.2020 03:00:00 0,9 0,6 - - 0,0
28.09.2020 02:00:00 1,0 0,6 - - 0,0
28.09.2020 01:00:00 2,0 1,6 - - 0,0
28.09.2020 00:00:00 3,1 2,6 - - 0,0
27.09.2020 23:00:00 3,5 3,0 - - 0,0
27.09.2020 22:00:00 3,9 3,3 - - 0,0
27.09.2020 21:00:00 4,4 3,1 - - 0,0
27.09.2020 20:00:00 5,9 4,0 - - 0,0
27.09.2020 19:00:00 7,7 3,3 - - 0,0
27.09.2020 18:00:00 12,5 4,1 - - 0,0
27.09.2020 17:00:00 13,1 4,2 - - 0,0
27.09.2020 16:00:00 13,9 5,6 - - 0,0
27.09.2020 15:00:00 13,1 4,7 - - 0,0
27.09.2020 14:00:00 12,7 4,9 - - 0,0
27.09.2020 13:00:00 11,7 4,9 - - 0,0
27.09.2020 12:00:00 10,8 4,7 - - 0,0
27.09.2020 11:00:00 10,4 5,5 - - 0,0
27.09.2020 10:00:00 8,7 3,8 - - 0,0
27.09.2020 09:00:00 6,9 4,0 - - 0,0
27.09.2020 08:00:00 4,4 2,7 - - 0,0
27.09.2020 07:00:00 3,5 1,9 - - 0,0
27.09.2020 06:00:00 5,1 3,4 - - 0,0
27.09.2020 05:00:00 5,2 3,2 - - 0,0
27.09.2020 04:00:00 5,4 3,7 - - 0,0
27.09.2020 03:00:00 4,9 3,7 - - 0,2
27.09.2020 02:00:00 3,7 3,3 - - 0,0
27.09.2020 01:00:00 3,4 3,0 - - 0,0
27.09.2020 00:00:00 3,2 2,7 - - 0,0
26.09.2020 23:00:00 3,2 2,2 - - 0,0
26.09.2020 22:00:00 4,2 2,4 - - 0,0
26.09.2020 21:00:00 6,8 3,9 - - 0,0
26.09.2020 20:00:00 8,4 4,3 - - 0,0
26.09.2020 19:00:00 9,3 4,8 - - 0,0
26.09.2020 18:00:00 10,5 4,6 - - 0,0
26.09.2020 17:00:00 11,2 5,3 - - 0,0
26.09.2020 16:00:00 10,9 5,5 - - 0,0
26.09.2020 15:00:00 10,3 5,0 - - 0,0
26.09.2020 14:00:00 10,3 4,4 - - 0,0
26.09.2020 13:00:00 10,2 4,7 - - 0,0
26.09.2020 12:00:00 9,0 4,5 - - 0,0
26.09.2020 11:00:00 8,8 4,3 - - 0,0
26.09.2020 10:00:00 7,6 2,9 - - -
26.09.2020 09:00:00 5,6 2,1 - - 0,0
26.09.2020 08:00:00 3,1 0,5 - - 0,0
26.09.2020 07:00:00 3,2 0,3 - - 0,0
26.09.2020 06:00:00 2,9 0,2 - - 0,0
26.09.2020 05:00:00 2,8 0,1 - - 0,0
26.09.2020 04:00:00 2,3 -0,1 - - 0,0
26.09.2020 03:00:00 2,6 0,2 - - 0,0
26.09.2020 02:00:00 3,0 0,8 - - 0,0
26.09.2020 01:00:00 3,7 1,5 - - 0,0
26.09.2020 00:00:00 4,0 2,5 - - 0,0
25.09.2020 23:00:00 5,3 3,3 - - 0,0
25.09.2020 22:00:00 6,7 3,9 - - 0,0
25.09.2020 21:00:00 7,4 5,1 - - 0,0
25.09.2020 20:00:00 8,2 5,0 - - 0,0
25.09.2020 19:00:00 8,5 5,8 - - 0,0
25.09.2020 18:00:00 9,1 6,6 - - 0,4
25.09.2020 17:00:00 10,2 7,5 - - 0,2
25.09.2020 16:00:00 10,0 6,5 - - 0,4
25.09.2020 15:00:00 10,5 5,6 - - 0,0
25.09.2020 14:00:00 10,7 5,6 - - -
25.09.2020 13:00:00 10,4 5,2 - - 0,0
25.09.2020 12:00:00 10,2 6,5 - - 0,0
25.09.2020 11:00:00 9,2 5,5 - - 0,0
25.09.2020 10:00:00 8,6 5,1 11,7 12,4 0,0
25.09.2020 09:00:00 7,4 5,0 - - 0,0
25.09.2020 08:00:00 4,8 3,5 - - 0,0
25.09.2020 07:00:00 4,5 3,2 - - 0,0
25.09.2020 06:00:00 4,3 3,0 - - 0,0
25.09.2020 05:00:00 5,2 4,1 - - -
25.09.2020 04:00:00 5,6 4,6 - - 0,2
25.09.2020 03:00:00 4,8 4,1 - - -
25.09.2020 02:00:00 4,9 4,1 - - -
25.09.2020 01:00:00 5,5 4,4 - - 0,0
25.09.2020 00:00:00 6,3 4,9 - - 0,0
24.09.2020 23:00:00 6,3 4,6 - - 0,0
24.09.2020 22:00:00 7,0 5,3 - - -
24.09.2020 21:00:00 6,6 5,4 - - 0,2
24.09.2020 20:00:00 6,7 5,9 - - 0,4
24.09.2020 19:00:00 6,8 6,0 - - 1,4
24.09.2020 18:00:00 7,1 6,0 - - 2,0
24.09.2020 17:00:00 7,7 6,4 - - 0,4
24.09.2020 16:00:00 8,2 6,7 - - 0,6
24.09.2020 15:00:00 8,3 6,5 - - 0,4
24.09.2020 14:00:00 9,0 6,0 - - 0,0
24.09.2020 13:00:00 9,1 7,3 - - 0,2
24.09.2020 12:00:00 8,0 7,8 - - 0,6
24.09.2020 11:00:00 6,6 6,4 - - 0,2
24.09.2020 10:00:00 5,4 5,3 12,2 12,4 0,0
24.09.2020 09:00:00 4,3 4,1 - - 0,0
24.09.2020 08:00:00 3,6 3,4 - - 0,0
24.09.2020 07:00:00 3,5 3,2 - - 0,0
24.09.2020 06:00:00 3,8 3,4 - - 0,0
24.09.2020 05:00:00 4,6 4,2 - - 0,0
24.09.2020 04:00:00 6,3 6,0 - - 0,0
24.09.2020 03:00:00 6,1 5,8 - - 0,0
24.09.2020 02:00:00 6,4 6,0 - - 0,0
24.09.2020 01:00:00 5,9 5,4 - - 0,0
24.09.2020 00:00:00 6,4 5,9 - - 0,0
23.09.2020 23:00:00 6,8 6,0 - - 0,8
23.09.2020 22:00:00 7,6 6,9 - - 0,4
23.09.2020 21:00:00 7,9 7,2 - - 0,0
23.09.2020 20:00:00 8,1 7,2 - - 0,2
23.09.2020 19:00:00 8,5 7,8 - - 0,2
23.09.2020 18:00:00 8,7 8,0 - - 0,4
23.09.2020 17:00:00 9,0 8,1 - - 0,2
23.09.2020 16:00:00 10,0 7,7 - - 0,0
23.09.2020 15:00:00 11,0 7,9 - - 0,0
23.09.2020 14:00:00 11,1 8,1 - - 0,0
23.09.2020 13:00:00 10,9 8,2 - - 0,0
23.09.2020 12:00:00 10,3 8,4 - - 0,0
23.09.2020 11:00:00 9,7 8,7 - - 0,0
23.09.2020 10:00:00 9,5 9,1 12,2 12,4 0,0
23.09.2020 09:00:00 8,9 8,4 - - 0,2
23.09.2020 08:00:00 8,4 7,8 - - 0,6
23.09.2020 07:00:00 8,9 8,3 - - 0,0
23.09.2020 06:00:00 9,7 9,1 - - 1,0
23.09.2020 05:00:00 10,0 9,4 - - 0,0
23.09.2020 04:00:00 10,3 9,7 - - 0,0
23.09.2020 03:00:00 10,5 9,6 - - 0,8

tt = temperature
td = dewpoint
tt -20cm = temperature -20cm
tt -100cm = temperature -100cm
rr = precipitation

Next stations